{"data":{"norad_id":65477,"intl_designator":"2025-195V","name":"STARLINK-35071","alt_names":[],"object_type":"PAYLOAD","status":"ACTIVE","operator":null,"country":"US","launch_date":"2025-09-03","launch_site_code":"AFETR","launch_vehicle":null,"mission":null,"orbit_class":"UNKNOWN","rcs_meters":null,"size_class":null,"mass_kg":null,"dimensions":null,"purposes":["comms"],"wikipedia_slug":null,"has_3d_model":false,"image_url":null,"decayed_at":null,"tle_current":{"epoch":"2026-05-25T04:00:03.998880Z","epoch_age_seconds":74736,"freshness":"FRESH","line1":"1 65477U 25195V   26145.16671295  .00060297  00000+0  17838-2 0  9998","line2":"2 65477  53.1595 262.9874 0001289  95.2415 210.3022 15.34357326  5759","mean_motion":15.34357326,"eccentricity":0.0001289,"inclination_deg":53.1595,"raan_deg":262.9874,"arg_perigee_deg":95.2415,"mean_anomaly_deg":210.3022,"bstar":0.0017838,"rev_number":575,"period_min":93.850368202954,"perigee_km":461.94827861139,"apogee_km":463.71187992442,"semimajor_km":6840.9670792679,"source":"CELESTRAK","updated_at":"2026-05-25T13:38:20.816006Z"}}}